When you browse on this site, cookies collect data to enhance your experience and personalize the content and advertising you see.
Visit our Privacy Policy to learn more. By continuing to use the site, you agree to this use of cookies and data.
  • In Latvia
  • List of Countries
  • For 7 days
  • Water Temperature
  • Satellite Maps
  • Weather Map
  • Weather Widgets
  • user-avatar
    Login

    Hourly Weather Teresin

    Today, 25 March, Monday

    Time Temperature Precipitation Wind Pressure Humidity
    00:00 +8°C° 0.3 mm 1 mps 738 mmHg 62%
    01:00 +8°C° 0 mm 1 mps 737 mmHg 68%
    02:00 +7°C° 0.2 mm 1 mps 737 mmHg 71%
    03:00 +6°C° 0.2 mm 2 mps 737 mmHg 74%
    04:00 +6°C° 0.2 mm 2 mps 736 mmHg 77%
    05:00 +6°C° 0 mm 2 mps 736 mmHg 75%
    06:00 +5°C° 0 mm 3 mps 736 mmHg 73%
    07:00 +5°C° 0 mm 3 mps 735 mmHg 72%
    08:00 +7°C° 0.1 mm 3 mps 735 mmHg 65%
    09:00 +7°C° 0.1 mm 4 mps 735 mmHg 57%
    10:00 +8°C° 0.1 mm 4 mps 735 mmHg 50%
    11:00 +9°C° 0 mm 5 mps 734 mmHg 47%
    12:00 +9°C° 0 mm 5 mps 734 mmHg 44%
    13:00 +9°C° 0 mm 5 mps 733 mmHg 41%
    14:00 +9°C° 0.2 mm 5 mps 733 mmHg 45%
    15:00 +8°C° 0.2 mm 5 mps 733 mmHg 49%
    16:00 +7°C° 0.2 mm 4 mps 733 mmHg 53%
    17:00 +7°C° 0.2 mm 4 mps 734 mmHg 56%
    18:00 +6°C° 0.2 mm 4 mps 734 mmHg 60%
    19:00 +5°C° 0.2 mm 4 mps 735 mmHg 64%
    20:00 +4°C° 0.2 mm 4 mps 735 mmHg 69%
    21:00 +4°C° 0.2 mm 3 mps 736 mmHg 73%
    22:00 +3°C° 0.2 mm 3 mps 736 mmHg 77%
    23:00 +3°C° 0.1 mm 4 mps 737 mmHg 79%

    Tomorrow, 26 March, Tuesday

    Time Temperature Precipitation Wind Pressure Humidity
    00:00 +3°C° 0.1 mm 4 mps 737 mmHg 81%
    01:00 +1°C° 0.1 mm 4 mps 738 mmHg 83%
    02:00 +1°C° 0.1 mm 4 mps 738 mmHg 85%
    03:00 +1°C° 0.1 mm 4 mps 739 mmHg 86%
    04:00 +1°C° 0.1 mm 4 mps 739 mmHg 88%
    05:00 +1°C° 0 mm 4 mps 740 mmHg 86%
    06:00 +1°C° 0 mm 4 mps 740 mmHg 84%
    07:00 +1°C° 0 mm 5 mps 741 mmHg 82%
    08:00 +2°C° 0 mm 5 mps 741 mmHg 75%
    09:00 +3°C° 0 mm 5 mps 741 mmHg 67%
    10:00 +4°C° 0 mm 6 mps 741 mmHg 60%
    11:00 +5°C° 0 mm 6 mps 741 mmHg 57%
    12:00 +5°C° 0 mm 7 mps 741 mmHg 54%
    13:00 +6°C° 0 mm 8 mps 740 mmHg 52%
    14:00 +6°C° 0.1 mm 8 mps 740 mmHg 51%
    15:00 +6°C° 0.1 mm 8 mps 740 mmHg 50%
    16:00 +6°C° 0.1 mm 9 mps 739 mmHg 49%
    17:00 +5°C° 0.1 mm 8 mps 740 mmHg 54%
    18:00 +4°C° 0.1 mm 8 mps 740 mmHg 58%
    19:00 +1°C° 0.1 mm 8 mps 741 mmHg 63%
    20:00 +2°C° 0.1 mm 7 mps 741 mmHg 65%
    21:00 +2°C° 0.1 mm 7 mps 742 mmHg 67%
    22:00 +2°C° 0.1 mm 6 mps 743 mmHg 69%
    23:00 0°C° 0 mm 5 mps 743 mmHg 67%

    Day after tomorrow, 27 March, Wednesday

    Time Temperature Precipitation Wind Pressure Humidity
    00:00 -1°C° 0 mm 4 mps 743 mmHg 64%
    01:00 -1°C° 0 mm 3 mps 744 mmHg 61%
    02:00 -2°C° 0 mm 3 mps 744 mmHg 63%
    03:00 -2°C° 0 mm 3 mps 744 mmHg 64%
    04:00 -3°C° 0 mm 2 mps 745 mmHg 65%
    05:00 -2°C° 0 mm 2 mps 745 mmHg 62%
    06:00 -1°C° 0 mm 2 mps 746 mmHg 59%
    07:00 -1°C° 0 mm 2 mps 746 mmHg 56%
    08:00 +1°C° 0 mm 3 mps 746 mmHg 49%
    09:00 +2°C° 0 mm 3 mps 747 mmHg 42%
    10:00 +3°C° 0 mm 3 mps 747 mmHg 36%
    11:00 +4°C° 0 mm 3 mps 747 mmHg 34%
    12:00 +5°C° 0 mm 3 mps 747 mmHg 32%
    13:00 +7°C° 0 mm 3 mps 747 mmHg 30%
    14:00 +7°C° 0 mm 3 mps 747 mmHg 34%
    15:00 +7°C° 0 mm 3 mps 747 mmHg 37%
    16:00 +8°C° 0 mm 3 mps 747 mmHg 41%
    17:00 +7°C° 0 mm 3 mps 747 mmHg 48%
    18:00 +6°C° 0 mm 2 mps 747 mmHg 55%
    19:00 +6°C° 0 mm 1 mps 747 mmHg 62%
    20:00 +6°C° 0.1 mm 1 mps 748 mmHg 64%
    21:00 +5°C° 0.1 mm 1 mps 748 mmHg 67%
    22:00 +5°C° 0.1 mm 1 mps 748 mmHg 69%
    23:00 +5°C° 0.1 mm 1 mps 749 mmHg 70%

    28 March, Thursday

    Time Temperature Precipitation Wind Pressure Humidity
    00:00 +4°C° 0.1 mm 2 mps 749 mmHg 72%
    01:00 +4°C° 0.1 mm 2 mps 749 mmHg 74%
    02:00 +4°C° 0 mm 2 mps 749 mmHg 75%
    03:00 +4°C° 0 mm 2 mps 749 mmHg 76%
    04:00 +4°C° 0 mm 1 mps 749 mmHg 78%
    05:00 +4°C° 0 mm 2 mps 749 mmHg 77%
    06:00 +4°C° 0 mm 2 mps 749 mmHg 77%
    07:00 +5°C° 0 mm 2 mps 749 mmHg 77%
    08:00 +6°C° 0 mm 2 mps 750 mmHg 73%
    09:00 +7°C° 0 mm 2 mps 750 mmHg 70%
    10:00 +9°C° 0 mm 2 mps 750 mmHg 66%
    11:00 +9°C° 0.2 mm 2 mps 750 mmHg 66%
    12:00 +9°C° 0.2 mm 2 mps 750 mmHg 66%
    13:00 +10°C° 0.2 mm 2 mps 750 mmHg 65%
    14:00 +10°C° 0.4 mm 2 mps 750 mmHg 66%
    15:00 +10°C° 0.4 mm 2 mps 749 mmHg 67%
    16:00 +10°C° 0.4 mm 2 mps 749 mmHg 68%
    17:00 +10°C° 0.1 mm 1 mps 749 mmHg 72%
    18:00 +9°C° 0.1 mm 1 mps 750 mmHg 76%
    19:00 +7°C° 0.1 mm 0 mps 750 mmHg 81%
    20:00 +7°C° 0 mm 0 mps 750 mmHg 83%
    21:00 +6°C° 0 mm 0 mps 750 mmHg 85%
    22:00 +5°C° 0 mm 0 mps 750 mmHg 88%
    23:00 +6°C° 0 mm 1 mps 751 mmHg 88%

    29 March, Friday

    Time Temperature Precipitation Wind Pressure Humidity
    00:00 +6°C° 0 mm 1 mps 751 mmHg 89%
    01:00 +6°C° 0 mm 1 mps 751 mmHg 90%
    02:00 +5°C° 0 mm 1 mps 751 mmHg 91%
    03:00 +5°C° 0 mm 1 mps 751 mmHg 92%
    04:00 +5°C° 0 mm 1 mps 751 mmHg 92%
    05:00 +5°C° 0 mm 1 mps 751 mmHg 91%
    06:00 +6°C° 0 mm 1 mps 751 mmHg 90%
    07:00 +6°C° 0 mm 1 mps 751 mmHg 88%
    08:00 +8°C° 0 mm 1 mps 751 mmHg 81%
    09:00 +9°C° 0 mm 1 mps 751 mmHg 74%
    10:00 +10°C° 0 mm 2 mps 751 mmHg 67%
    11:00 +12°C° 0 mm 2 mps 751 mmHg 63%
    12:00 +12°C° 0 mm 2 mps 750 mmHg 59%
    13:00 +13°C° 0 mm 2 mps 750 mmHg 55%
    14:00 +13°C° 0 mm 2 mps 750 mmHg 56%
    15:00 +12°C° 0 mm 2 mps 749 mmHg 57%
    16:00 +12°C° 0 mm 2 mps 749 mmHg 59%
    17:00 +10°C° 0 mm 2 mps 749 mmHg 63%
    18:00 +10°C° 0 mm 1 mps 749 mmHg 67%
    19:00 +9°C° 0 mm 1 mps 749 mmHg 70%
    20:00 +8°C° 0 mm 1 mps 749 mmHg 73%
    21:00 +8°C° 0 mm 1 mps 749 mmHg 75%
    22:00 +7°C° 0 mm 1 mps 749 mmHg 78%
    23:00 +7°C° 0 mm 1 mps 749 mmHg 79%

    30 March, Saturday

    Time Temperature Precipitation Wind Pressure Humidity
    00:00 +6°C° 0 mm 1 mps 748 mmHg 80%
    01:00 +6°C° 0 mm 1 mps 748 mmHg 81%
    02:00 +6°C° 0 mm 1 mps 748 mmHg 83%
    03:00 +5°C° 0 mm 1 mps 748 mmHg 84%
    04:00 +5°C° 0 mm 1 mps 748 mmHg 86%
    05:00 +6°C° 0 mm 1 mps 748 mmHg 83%
    06:00 +6°C° 0 mm 1 mps 748 mmHg 80%
    07:00 +7°C° 0 mm 1 mps 747 mmHg 78%
    08:00 +9°C° 0 mm 1 mps 747 mmHg 71%
    09:00 +10°C° 0 mm 1 mps 747 mmHg 64%
    10:00 +12°C° 0 mm 1 mps 747 mmHg 57%
    11:00 +13°C° 0 mm 1 mps 746 mmHg 52%
    12:00 +14°C° 0 mm 1 mps 746 mmHg 48%
    13:00 +15°C° 0 mm 1 mps 745 mmHg 43%
    14:00 +15°C° 0 mm 1 mps 744 mmHg 42%
    15:00 +16°C° 0 mm 1 mps 744 mmHg 41%
    16:00 +16°C° 0 mm 1 mps 743 mmHg 40%
    17:00 +14°C° 0 mm 1 mps 743 mmHg 44%
    18:00 +13°C° 0 mm 1 mps 743 mmHg 48%
    19:00 +11°C° 0 mm 1 mps 742 mmHg 52%
    20:00 +11°C° 0 mm 1 mps 742 mmHg 55%
    21:00 +10°C° 0 mm 1 mps 742 mmHg 57%
    22:00 +9°C° 0 mm 2 mps 742 mmHg 59%
    23:00 +8°C° 0 mm 2 mps 741 mmHg 61%
    Show more